Погода в Афанасьеве

Россия / Липецкая область     52°34′13″N   38°11′28″E
темп.,
°C
ветер,
м/с
пор.,
м/с
влажн.,
%
обл.,
%
осадки,
мм/ч
давл.,
гПа
погр.,
м
7 августа, вс
вс700:00+21в33490 0.0 101830
03:00+19вюв22520 0.0 101823
06:00+19в22540 0.0 101819
09:00+24вюв23430 0.0 1018305
12:00+28юв23350 0.0 10181095
15:00+29ююв23280 0.0 10172827
18:00+29ююз0139100 0.0 101734
21:00+23ссв1138100 0.0 101711
8 августа, пн
пн800:00+23всв2240100 0.0 101723
03:00+21всв224592 0.0 101716
06:00+21всв225192 0.0 101836
09:00+21юв2255100 0.0 101933
12:00+28ю343680 0.0 1019644
15:00+29юз23375 0.0 1018717
18:00+29з11415 0.0 101844
21:00+23ссз115210 0.0 101811
9 августа, вт
вт900:00+21сз115643 0.0 101911
03:00+21в115499 0.0 101911
06:00+20с1163100 0.0 101912
09:00+24с1155100 0.0 1018250
12:00+25ссз2259100 0.0 1019384
15:00+28сз224697 0.0 1018966
18:00+26с2256100 0.0 1017140
21:00+21с5976100 0.0 1018253
10 августа, ср
ср1000:00+19ссв4890100 0.0 1018234
03:00+18с4894100 0.3 1018277
06:00+18ссв4891100 0.1 1018303
09:00+18ссв598899 0.3 1019370
12:00+23ссв6665100 0.0 10191019
15:00+21ссв6866100 0.0 1019710
18:00+21ссв676569 0.0 1019711
21:00+16ссв497679 0.0 1020295
11 августа, чт
чт1100:00+16ссв5117699 0.0 1020326
03:00+15ссв51281100 0.0 1020320
06:00+14ссв51181100 0.0 1021357
09:00+18св686156 0.0 1022605
12:00+23св674178 0.0 10221163
15:00+25св563722 0.0 10211439
18:00+24св57472 0.0 1021620
21:00+18св411600 0.0 1022243